Date String (YYYY-MM-DD hh:mm:ss) UTC,Instrument flags,absolute air pressure of the measurement (hPa),sample flow rate (lpm),inlet stack bypass flow (lpm),air temperature of the measurement (°C),ambient temperature measured by the external sensor (°C),aerosol sample conditioner tube jacket temperature (°C),OPC LED temperature (°C),internal box temperature (°C),relative humidity of the measurement (%),span deviation,mass concentration of particles derived from Lorenz-Mie calculation of OPC scattering (μg/m³),mass concentration of particles derived from Lorenz-Mie calculation of OPC scattering (μg/m³),mass concentration of particles derived from Lorenz-Mie calculation of OPC scattering (μg/m³)
DateTimeUTC,F1_M11,P_M11,Q1_M11,Q2_M11,T1_M11,T2_M11,T3_M11,T4_M11,T5_M11,U1_M11,ZSPAN_M11,X2_M11,X0_M11,X1_M11
2023-12-27 09:00:00,SystemResetWarning,0828.8,5.00,000.00,019.7,018.9,000.0,028.1,021.0,13.9,0000.0,0001.35,0004.46,0001.00
2023-12-27 09:01:00,SystemResetWarning,0828.8,4.99,000.00,019.7,018.9,000.0,028.1,021.0,13.9,0000.0,0001.32,0003.82,0001.01
2023-12-27 09:02:00,SystemResetWarning,0828.8,5.00,000.00,019.7,018.9,000.0,028.1,021.0,14.0,0000.0,0001.32,0003.77,0001.00
2023-12-27 09:03:00,SystemResetWarning,0828.7,5.00,000.00,019.7,018.9,000.0,028.1,021.0,13.9,0000.0,0001.30,0003.71,0001.00
2023-12-27 09:04:00,SystemResetWarning,0828.8,5.01,000.00,019.7,018.8,000.0,028.1,020.9,13.8,0000.0,0001.27,0003.93,0000.99
2023-12-27 09:05:00,SystemResetWarning,0828.8,5.01,000.00,019.7,018.8,000.0,028.1,020.9,13.8,0000.0,0001.26,0004.09,0000.99
2023-12-27 09:06:00,SystemResetWarning,0828.8,4.99,000.00,019.7,018.8,000.0,028.1,020.8,13.8,0000.0,0001.25,0004.07,0000.99
2023-12-27 09:07:00,SystemResetWarning,0828.7,4.99,000.00,019.7,018.8,000.0,028.0,020.8,13.7,0000.0,0001.23,0004.08,0000.98
2023-12-27 09:08:00,SystemResetWarning,0828.8,5.00,000.00,019.7,018.8,000.0,028.0,020.8,13.7,0000.0,0001.22,0003.87,0000.99
2023-12-27 09:09:00,SystemResetWarning,0828.7,5.01,000.00,019.7,018.7,000.0,028.0,020.7,13.8,0000.0,0001.21,0002.32,0000.99
2023-12-27 09:10:00,SystemResetWarning,0828.8,5.01,000.00,019.7,018.8,000.0,028.0,020.8,13.7,0000.0,0001.22,0002.45,0000.99
2023-12-27 09:11:00,SystemResetWarning,0828.7,5.00,000.00,019.6,018.8,000.0,028.0,020.7,13.7,0000.0,0001.21,0002.49,0001.00
2023-12-27 09:12:00,SystemResetWarning,0828.8,5.00,000.00,019.6,018.8,000.0,028.0,020.7,13.7,0000.0,0001.23,0002.52,0001.00
2023-12-27 09:13:00,SystemResetWarning,0828.8,4.99,000.00,019.6,018.8,000.0,028.0,020.7,13.7,0000.0,0001.23,0002.54,0001.01
2023-12-27 09:14:00,SystemResetWarning,0828.8,4.99,000.00,019.6,018.7,000.0,028.0,020.6,13.8,0000.0,0001.26,0002.60,0001.02
2023-12-27 09:15:00,SystemResetWarning,0828.8,5.00,000.00,019.6,018.7,000.0,028.0,020.6,13.8,0000.0,0001.26,0002.26,0001.04
2023-12-27 09:16:00,SystemResetWarning,0828.8,5.00,000.00,019.6,018.7,000.0,028.0,020.7,13.8,0000.0,0001.24,0002.01,0001.04
2023-12-27 09:17:00,SystemResetWarning,0828.8,5.00,000.00,019.6,018.7,000.0,028.0,020.7,13.8,0000.0,0001.24,0002.04,0001.04
2023-12-27 09:18:00,SystemResetWarning,0828.8,5.00,000.00,019.6,018.7,000.0,028.0,020.7,13.8,0000.0,0001.26,0002.03,0001.06
2023-12-27 09:19:00,SystemResetWarning,0828.8,5.01,000.00,019.6,018.6,000.0,027.9,020.7,13.8,0000.0,0001.27,0002.02,0001.07
2023-12-27 09:20:00,SystemResetWarning,0828.9,5.00,000.00,019.5,018.6,000.0,027.9,020.7,13.8,0000.0,0001.27,0002.01,0001.07
2023-12-27 09:21:00,SystemResetWarning,0828.9,5.00,000.00,019.5,018.6,000.0,027.9,020.7,13.8,0000.0,0001.26,0001.96,0001.07
2023-12-27 09:22:00,SystemResetWarning,0828.9,5.00,000.00,019.5,018.6,000.0,027.9,020.7,13.8,0000.0,0001.26,0002.47,0001.07
2023-12-27 09:23:00,SystemResetWarning,0829.0,4.99,000.00,019.5,018.6,000.0,027.9,020.7,13.8,0000.0,0001.23,0002.41,0001.06
2023-12-27 09:24:00,SystemResetWarning,0828.9,5.00,000.00,019.5,018.6,000.0,027.9,020.7,13.8,0000.0,0001.22,0002.40,0001.06
2023-12-27 09:25:00,SystemResetWarning,0828.9,5.00,000.00,019.5,018.6,000.0,027.9,020.7,13.8,0000.0,0001.20,0002.34,0001.06
2023-12-27 09:26:00,SystemResetWarning,0828.9,5.00,000.00,019.5,018.6,000.0,027.9,020.7,13.7,0000.0,0001.22,0002.39,0001.05
2023-12-27 09:27:00,SystemResetWarning,0828.9,5.01,000.00,019.5,018.6,000.0,027.9,020.7,13.7,0000.0,0001.24,0002.37,0001.06
2023-12-27 09:28:00,SystemResetWarning,0828.9,5.01,000.00,019.5,018.6,000.0,027.9,020.7,13.7,0000.0,0001.23,0002.30,0001.06
2023-12-27 09:29:00,SystemResetWarning,0829.0,4.99,000.00,019.5,018.6,000.0,027.9,020.7,13.7,0000.0,0001.19,0002.23,0001.04
2023-12-27 09:30:00,SystemResetWarning,0829.0,4.99,000.00,019.5,018.6,000.0,027.9,020.7,13.7,0000.0,0001.18,0002.26,0001.03
2023-12-27 09:31:00,SystemResetWarning,0829.0,4.99,000.00,019.5,018.6,000.0,027.9,020.6,13.7,0000.0,0001.18,0002.26,0001.03
2023-12-27 09:32:00,SystemResetWarning,0828.9,5.00,000.00,019.5,018.5,000.0,027.9,020.6,13.7,0000.0,0001.17,0002.25,0001.03
2023-12-27 09:33:00,SystemResetWarning,0828.9,5.01,000.00,019.5,018.5,000.0,027.8,020.6,13.8,0000.0,0001.17,0001.59,0001.04
2023-12-27 09:34:00,SystemResetWarning,0828.9,5.01,000.00,019.5,018.5,000.0,027.8,020.6,13.7,0000.0,0001.20,0001.64,0001.05
2023-12-27 09:35:00,SystemResetWarning,0829.0,5.00,000.00,019.5,018.5,000.0,027.8,020.6,13.8,0000.0,0001.25,0001.86,0001.06
2023-12-27 09:36:00,SystemResetWarning,0829.0,4.99,000.00,019.4,018.5,000.0,027.8,020.6,13.8,0000.0,0001.30,0002.00,0001.07
2023-12-27 09:37:00,SystemResetWarning,0829.0,5.00,000.00,019.4,018.5,000.0,027.8,020.6,13.9,0000.0,0001.30,0002.00,0001.09
2023-12-27 09:38:00,SystemResetWarning,0829.0,5.00,000.00,019.4,018.5,000.0,027.8,020.6,14.0,0000.0,0001.30,0002.00,0001.09
2023-12-27 09:39:00,SystemResetWarning,0829.0,5.00,000.00,019.4,018.5,000.0,027.8,020.5,14.0,0000.0,0001.33,0002.04,0001.11
2023-12-27 09:40:00,SystemResetWarning,0829.0,5.00,000.00,019.4,018.4,000.0,027.8,020.5,14.0,0000.0,0001.35,0002.11,0001.11
2023-12-27 09:41:00,SystemResetWarning,0829.0,5.01,000.00,019.4,018.4,000.0,027.8,020.6,14.1,0000.0,0001.35,0002.11,0001.11
2023-12-27 09:42:00,SystemResetWarning,0829.0,5.01,000.00,019.4,018.4,000.0,027.8,020.6,14.2,0000.0,0001.40,0002.28,0001.13
2023-12-27 09:43:00,SystemResetWarning,0829.1,5.00,000.00,019.4,018.4,000.0,027.8,020.6,14.3,0000.0,0001.41,0002.30,0001.13
2023-12-27 09:44:00,SystemResetWarning,0829.1,5.01,000.00,019.4,018.5,000.0,027.8,020.6,14.4,0000.0,0001.41,0002.28,0001.12
2023-12-27 09:45:00,SystemResetWarning,0829.1,5.00,000.00,019.4,018.5,000.0,027.8,020.6,14.5,0000.0,0001.41,0002.22,0001.13
2023-12-27 09:46:00,SystemResetWarning,0829.1,5.00,000.00,019.4,018.5,000.0,027.8,020.6,14.5,0000.0,0001.37,0001.97,0001.12
2023-12-27 09:47:00,SystemResetWarning,0829.1,5.00,000.00,019.4,018.5,000.0,027.7,020.6,14.3,0000.0,0001.31,0001.84,0001.11
2023-12-27 09:48:00,SystemResetWarning,0829.1,5.00,000.00,019.4,018.5,000.0,027.7,020.5,14.3,0000.0,0001.28,0001.81,0001.08
2023-12-27 09:49:00,SystemResetWarning,0829.1,4.99,000.00,019.4,018.5,000.0,027.7,020.5,14.3,0000.0,0001.30,0001.87,0001.08
2023-12-27 09:50:00,SystemResetWarning,0829.1,5.00,000.00,019.4,018.5,000.0,027.7,020.5,14.4,0000.0,0001.32,0001.95,0001.08
2023-12-27 09:51:00,SystemResetWarning,0829.1,5.00,000.00,019.4,018.5,000.0,027.7,020.5,14.5,0000.0,0001.34,0002.05,0001.10
2023-12-27 09:52:00,SystemResetWarning,0829.1,5.00,000.00,019.3,018.4,000.0,027.7,020.5,14.5,0000.0,0001.33,0002.02,0001.10
2023-12-27 09:53:00,SystemResetWarning,0829.1,5.00,000.00,019.3,018.4,000.0,027.7,020.5,14.6,0000.0,0001.32,0001.95,0001.09
2023-12-27 09:54:00,SystemResetWarning,0829.2,5.00,000.00,019.3,018.4,000.0,027.7,020.5,14.6,0000.0,0001.36,0002.08,0001.10
2023-12-27 09:55:00,SystemResetWarning,0829.2,5.00,000.00,019.3,018.4,000.0,027.7,020.4,14.6,0000.0,0001.36,0002.10,0001.09
2023-12-27 09:56:00,SystemResetWarning,0829.2,5.00,000.00,019.3,018.4,000.0,027.7,020.3,14.5,0000.0,0001.35,0002.20,0001.08
2023-12-27 09:57:00,SystemResetWarning,0829.2,5.01,000.00,019.3,018.4,000.0,027.7,020.3,14.5,0000.0,0001.35,0002.21,0001.04
2023-12-27 09:58:00,SystemResetWarning,0829.1,5.00,000.00,019.3,018.4,000.0,027.7,020.3,14.3,0000.0,0001.38,0002.31,0001.04
2023-12-27 09:59:00,SystemResetWarning,0829.2,4.99,000.00,019.3,018.4,000.0,027.7,020.4,14.2,0000.0,0001.38,0002.30,0001.02
